DW7980 Weather Reports


Display with metric or nautical units.
time (UTC)temp
F
wind
direction
speed
MPH
gust
MPH
rain 1hr
in
rain 24hr
in
rain mn
in
humidity
%
barometer
mb
20260505211039 62 107 0.0 3.0 0.00 0.00 0.00 76 1016.8
20260505210539 62 220 0.0 3.0 0.00 0.00 0.00 75 1016.8
20260505210045 62 221 0.0 4.0 0.00 0.00 0.00 75 1016.8
20260505205541 62 181 1.0 4.0 0.00 0.00 0.00 77 1016.8
20260505205038 62 163 1.0 4.0 0.00 0.00 0.00 77 1016.8
20260505204548 61 184 1.0 5.0 0.00 0.00 0.00 76 1016.8
20260505204040 61 184 2.0 5.0 0.00 0.00 0.00 77 1016.9
20260505203543 61 247 2.0 5.0 0.00 0.00 0.00 76 1016.9
20260505203107 61 138 1.0 4.0 0.00 0.00 0.00 78 1016.9
20260505202539 61 112 1.0 5.0 0.00 0.00 0.00 77 1016.9
20260505202039 60 168 0.0 5.0 0.00 0.00 0.00 77 1016.9
20260505201603 60 0 1.0 4.0 0.00 0.00 0.00 77 1017.0
20260505201038 61 178 1.0 4.0 0.00 0.00 0.00 76 1017.0
20260505200539 61 0 0.0 4.0 0.00 0.00 0.00 77 1017.1
20260505200053 61 96 2.0 4.0 0.00 0.00 0.00 76 1017.0
20260505195542 60 202 0.0 3.0 0.00 0.00 0.00 78 1017.0
20260505195038 60 0 1.0 3.0 0.00 0.00 0.00 77 1017.1
20260505194548 60 0 0.0 3.0 0.00 0.00 0.00 78 1017.0
20260505194038 59 40 0.0 3.0 0.00 0.00 0.00 80 1017.0
20260505193537 59 0 0.0 4.0 0.00 0.00 0.00 79 1017.0
20260505193046 59 0 1.0 4.0 0.00 0.00 0.00 79 1017.0
20260505192538 59 179 0.0 0.0 0.00 0.00 0.00 79 1017.1
20260505192042 59 0 0.0 0.0 0.00 0.00 0.00 80 1017.0
20260505191550 59 0 0.0 0.0 0.00 0.00 0.00 80 1017.0
20260505191038 58 0 0.0 0.0 0.00 0.00 0.00 81 1017.0
20260505190539 58 0 0.0 0.0 0.00 0.00 0.00 80 1017.1
20260505190050 58 0 0.0 0.0 0.00 0.00 0.00 80 1017.1
20260505185537 58 0 0.0 0.0 0.00 0.00 0.00 81 1017.0
20260505185040 57 0 0.0 0.0 0.00 0.00 0.00 81 1017.1
20260505184549 57 0 0.0 0.0 0.00 0.00 0.00 82 1017.1
20260505184039 57 0 0.0 0.0 0.00 0.00 0.00 82 1017.2
20260505183542 57 0 0.0 0.0 0.00 0.00 0.00 81 1017.2
20260505183046 57 0 0.0 0.0 0.00 0.00 0.00 83 1017.2
20260505182538 57 0 0.0 0.0 0.00 0.00 0.00 84 1017.1
20260505182038 56 0 0.0 0.0 0.00 0.00 0.00 83 1017.1
20260505181547 56 0 0.0 1.0 0.00 0.00 0.00 83 1017.0
20260505181038 56 0 0.0 2.0 0.00 0.00 0.00 83 1017.0
20260505180540 56 0 0.0 2.0 0.00 0.00 0.00 83 1017.0
20260505180057 56 292 1.0 4.0 0.00 0.00 0.00 83 1017.0
20260505175539 56 0 0.0 4.0 0.00 0.00 0.00 83 1017.0
20260505175039 56 190 1.0 5.0 0.00 0.00 0.00 83 1017.1
20260505174546 56 170 0.0 5.0 0.00 0.00 0.00 83 1017.1
20260505174038 56 135 1.0 4.0 0.00 0.00 0.00 84 1017.0
20260505173537 56 0 0.0 3.0 0.00 0.00 0.00 84 1016.9
20260505173055 56 178 2.0 3.0 0.00 0.00 0.00 83 1017.0
20260505172538 56 196 0.0 4.0 0.00 0.00 0.00 84 1016.9
20260505172039 55 0 1.0 4.0 0.00 0.00 0.00 85 1016.8
20260505171550 55 0 0.0 3.0 0.00 0.00 0.00 85 1016.8
20260505171039 55 0 1.0 4.0 0.00 0.00 0.00 85 1016.9
20260505170540 55 0 1.0 4.0 0.00 0.00 0.00 86 1016.9
20260505170104 55 168 1.0 4.0 0.00 0.00 0.00 86 1016.8
20260505165538 54 0 1.0 4.0 0.00 0.00 0.00 86 1016.8
20260505165043 54 225 1.0 5.0 0.00 0.00 0.00 86 1016.7
20260505164550 54 184 2.0 5.0 0.00 0.00 0.00 86 1016.7
20260505164038 54 218 2.0 5.0 0.00 0.00 0.00 87 1016.7
20260505163538 54 0 0.0 0.0 0.00 0.00 0.00 87 1016.8
20260505163044 54 0 0.0 0.0 0.00 0.00 0.00 87 1016.7
20260505162538 54 0 0.0 0.0 0.00 0.00 0.00 87 1016.6
20260505162038 53 0 0.0 0.0 0.00 0.00 0.00 87 1016.6
20260505161612 53 0 0.0 1.0 0.00 0.00 0.00 87 1016.6
20260505161039 53 0 0.0 2.0 0.00 0.00 0.00 88 1016.6
20260505160538 53 0 0.0 2.0 0.00 0.00 0.00 88 1016.6
20260505153056 53 0 1.0 3.0 0.00 0.00 0.00 88 1016.7
20260505152538 53 196 0.0 2.0 0.00 0.00 0.00 88 1016.6
20260505152039 53 0 0.0 2.0 0.00 0.00 0.00 88 1016.6
20260505151603 53 0 0.0 2.0 0.00 0.00 0.00 88 1016.6
20260505151040 53 0 0.0 2.0 0.00 0.00 0.00 88 1016.6
20260505150542 53 0 0.0 1.0 0.00 0.00 0.00 88 1016.6
20260505140540 52 0 0.0 2.0 0.00 0.00 0.00 87 1016.0
20260505125040 53 0 0.0 1.0 0.00 0.00 0.00 86 1015.7
20260505124549 53 0 0.0 2.0 0.00 0.00 0.00 86 1015.7
20260505124038 53 0 0.0 2.0 0.00 0.00 0.00 86 1015.7
20260505123540 53 0 0.0 2.0 0.00 0.00 0.00 86 1015.8
20260505123051 53 0 0.0 2.0 0.00 0.00 0.00 86 1015.7
20260505122544 53 0 0.0 2.0 0.00 0.00 0.00 86 1015.7
20260505122038 53 0 0.0 1.0 0.00 0.00 0.00 86 1015.7
20260505121608 53 0 0.0 1.0 0.00 0.00 0.00 86 1015.8
20260505121039 53 0 0.0 1.0 0.00 0.00 0.00 86 1015.7
20260505120538 53 0 0.0 2.0 0.00 0.00 0.00 86 1015.6
20260505120048 53 0 0.0 2.0 0.00 0.00 0.00 86 1015.6
20260505115544 53 0 0.0 1.0 0.00 0.00 0.00 86 1015.6
20260505115038 53 0 0.0 4.0 0.00 0.00 0.00 86 1015.6
20260505114548 53 0 0.0 4.0 0.00 0.00 0.00 85 1015.6
20260505114041 53 0 0.0 3.0 0.00 0.00 0.00 85 1015.6
20260505113538 53 0 0.0 3.0 0.00 0.00 0.00 85 1015.6
20260505113047 53 0 0.0 2.0 0.00 0.00 0.00 85 1015.6
20260505112538 53 0 0.0 2.0 0.00 0.00 0.00 85 1015.5
20260505112039 53 0 0.0 3.0 0.00 0.00 0.00 85 1015.4
20260505111546 53 0 0.0 3.0 0.00 0.00 0.00 85 1015.4
20260505111040 53 192 0.0 3.0 0.00 0.00 0.00 85 1015.4
20260505110541 53 0 0.0 2.0 0.00 0.00 0.00 85 1015.3
20260505102038 53 0 0.0 2.0 0.00 0.00 0.00 85 1015.0
20260505101556 53 0 0.0 2.0 0.00 0.00 0.00 85 1015.0
20260505101038 53 0 0.0 2.0 0.00 0.00 0.00 85 1014.8
20260505100538 53 178 0.0 3.0 0.00 0.00 0.00 85 1014.7
20260505100048 53 0 0.0 3.0 0.00 0.00 0.00 85 1014.8
20260505095539 53 178 0.0 4.0 0.00 0.00 0.00 85 1014.8
20260505095039 53 0 1.0 4.0 0.00 0.00 0.00 85 1014.9
20260505094542 53 178 1.0 3.0 0.00 0.00 0.00 85 1014.8
20260505094038 53 0 0.0 3.0 0.00 0.00 0.00 85 1014.6
20260505093539 53 178 0.0 3.0 0.00 0.00 0.00 85 1014.6
20260505093050 53 202 1.0 3.0 0.00 0.00 0.00 85 1014.6
20260505092539 53 219 0.0 2.0 0.00 0.00 0.00 85 1014.6
20260505092038 53 0 0.0 2.0 0.00 0.00 0.00 85 1014.6
20260505091554 53 0 0.0 2.0 0.00 0.00 0.00 85 1014.5
20260505091038 53 219 0.0 3.0 0.00 0.00 0.00 84 1014.6
20260505090538 53 219 0.0 3.0 0.00 0.00 0.00 84 1014.5
20260505090059 53 0 1.0 3.0 0.00 0.00 0.00 84 1014.5
20260505085539 53 188 0.0 3.0 0.00 0.00 0.00 84 1014.5
20260505085039 53 190 0.0 3.0 0.00 0.00 0.00 84 1014.5
20260505084551 53 190 0.0 4.0 0.00 0.00 0.00 84 1014.6
20260505084038 54 216 1.0 5.0 0.00 0.00 0.00 84 1014.5
20260505083538 54 180 0.0 5.0 0.00 0.00 0.00 84 1014.5
20260505083056 54 179 1.0 4.0 0.00 0.00 0.00 83 1014.4
20260505082539 54 175 1.0 5.0 0.00 0.00 0.00 83 1014.4
20260505082039 54 236 1.0 5.0 0.00 0.00 0.00 83 1014.5
20260505081550 54 182 1.0 5.0 0.00 0.00 0.00 83 1014.5
20260505081038 54 215 1.0 5.0 0.00 0.00 0.00 84 1014.4
20260505080539 54 178 2.0 4.0 0.00 0.00 0.00 83 1014.4
20260505080048 54 0 0.0 3.0 0.00 0.00 0.00 84 1014.4
20260505075542 54 176 0.0 3.0 0.00 0.00 0.00 84 1014.4
20260505075039 54 214 0.0 3.0 0.00 0.00 0.00 84 1014.3
20260505074549 54 0 0.0 3.0 0.00 0.00 0.00 84 1014.3
20260505074038 54 0 1.0 3.0 0.00 0.00 0.00 83 1014.2
20260505073538 54 260 0.0 3.0 0.00 0.00 0.00 83 1014.1
20260505073048 54 178 0.0 3.0 0.00 0.00 0.00 83 1014.1
20260505072542 54 178 0.0 4.0 0.00 0.00 0.00 83 1014.1
20260505072039 54 178 0.0 4.0 0.00 0.00 0.00 82 1013.9
20260505071554 54 181 1.0 4.0 0.00 0.00 0.00 82 1013.8
20260505071038 55 0 0.0 3.0 0.00 0.00 0.00 82 1013.8
20260505070539 55 0 0.0 3.0 0.00 0.00 0.00 82 1013.6
20260505070051 55 0 0.0 6.0 0.00 0.00 0.00 82 1013.6
20260505065539 55 190 2.0 6.0 0.00 0.00 0.00 81 1013.6
20260505065038 55 180 1.0 6.0 0.00 0.00 0.00 81 1013.6
20260505064549 55 190 2.0 6.0 0.00 0.00 0.00 81 1013.4
20260505064038 56 0 1.0 6.0 0.00 0.00 0.00 81 1013.4
20260505063538 56 240 1.0 6.0 0.00 0.00 0.00 80 1013.4
20260505063052 56 211 2.0 7.0 0.00 0.00 0.00 80 1013.4
20260505062539 56 217 2.0 7.0 0.00 0.00 0.00 80 1013.4
20260505062039 56 180 1.0 7.0 0.00 0.00 0.00 80 1013.4
20260505061552 57 202 3.0 7.0 0.00 0.00 0.00 79 1013.3
20260505061038 57 222 1.0 5.0 0.00 0.00 0.00 80 1013.2
20260505060538 57 182 2.0 5.0 0.00 0.00 0.00 79 1013.3
20260505060056 58 184 1.0 4.0 0.00 0.00 0.00 80 1013.3
20260505055539 58 184 1.0 4.0 0.00 0.00 0.00 80 1013.3
20260505055038 58 0 1.0 3.0 0.00 0.00 0.00 80 1013.2
20260505054554 59 272 0.0 2.0 0.00 0.00 0.00 79 1013.2
20260505054038 59 272 0.0 2.0 0.00 0.00 0.00 79 1013.2
20260505053538 59 272 0.0 4.0 0.00 0.00 0.00 79 1013.1
20260505053105 60 0 0.0 4.0 0.00 0.00 0.00 78 1013.1
20260505052538 60 0 0.0 3.0 0.00 0.00 0.00 78 1013.0
20260505052039 60 0 0.0 5.0 0.00 0.00 0.00 78 1012.9
20260505051553 60 0 1.0 8.0 0.00 0.00 0.00 78 1012.9
20260505051039 60 225 1.0 8.0 0.00 0.00 0.00 78 1012.9
20260505050539 61 196 1.0 4.0 0.00 0.00 0.00 78 1012.9
20260505041553 63 173 1.0 3.0 0.00 0.00 0.00 77 1012.1
20260505041039 62 180 1.0 4.0 0.00 0.00 0.00 78 1012.0
20260505040539 62 0 1.0 4.0 0.00 0.00 0.00 79 1012.0
20260505040050 63 240 1.0 4.0 0.00 0.00 0.00 79 1011.9
20260505035539 63 0 0.0 3.0 0.00 0.00 0.00 79 1011.8
20260505035041 63 0 1.0 3.0 0.00 0.00 0.00 79 1011.7
20260505034550 63 175 1.0 3.0 0.00 0.00 0.00 79 1011.7
20260505034039 63 172 0.0 2.0 0.00 0.00 0.00 79 1011.5
20260505033540 64 172 0.0 2.0 0.00 0.00 0.00 78 1011.6
20260505033110 64 172 0.0 2.0 0.00 0.00 0.00 78 1011.4
20260505032537 64 172 0.0 2.0 0.00 0.00 0.00 77 1011.5
20260505032039 65 0 0.0 2.0 0.00 0.00 0.00 77 1011.4
20260505031552 65 172 0.0 2.0 0.00 0.00 0.00 76 1011.2
20260505031042 65 0 0.0 1.0 0.00 0.00 0.00 76 1011.2
20260505030539 65 0 0.0 2.0 0.00 0.00 0.00 76 1011.2
20260505030052 66 0 0.0 3.0 0.00 0.00 0.00 75 1011.2
20260505025538 66 172 0.0 3.0 0.00 0.00 0.00 75 1011.1
20260505025040 66 172 1.0 5.0 0.00 0.00 0.00 75 1011.1
20260505024600 66 172 1.0 5.0 0.00 0.00 0.00 74 1011.1
20260505024039 66 171 1.0 5.0 0.00 0.00 0.00 74 1011.1
20260505023538 66 168 1.0 5.0 0.00 0.00 0.00 74 1011.1
20260505023059 67 258 0.0 5.0 0.00 0.00 0.00 74 1011.1
20260505022539 67 258 1.0 5.0 0.00 0.00 0.00 73 1011.1
20260505022042 67 0 1.0 5.0 0.00 0.00 0.00 73 1011.0
20260505021557 67 206 1.0 5.0 0.00 0.00 0.00 73 1011.0
20260505021038 67 185 1.0 4.0 0.00 0.00 0.00 73 1011.1
20260505020538 67 221 1.0 4.0 0.00 0.00 0.00 72 1011.1
20260505020055 67 210 0.0 4.0 0.00 0.00 0.00 73 1011.1
20260505015538 67 227 0.0 4.0 0.00 0.00 0.00 73 1011.0
20260505015042 68 227 1.0 4.0 0.00 0.00 0.00 72 1011.1
20260505014549 68 163 1.0 3.0 0.00 0.00 0.00 72 1011.1
20260505014037 68 219 0.0 4.0 0.00 0.00 0.00 71 1011.2
20260505013539 68 219 0.0 5.0 0.00 0.00 0.00 71 1011.2
20260505013052 68 219 1.0 6.0 0.00 0.00 0.00 71 1011.2
20260505012540 68 199 2.0 6.0 0.00 0.00 0.00 70 1011.2
20260505012038 68 219 2.0 6.0 0.00 0.00 0.00 70 1011.2
20260505011552 68 168 1.0 4.0 0.00 0.00 0.00 71 1011.3
20260505011041 68 238 2.0 8.0 0.00 0.00 0.00 70 1011.3
20260505010540 68 221 2.0 8.0 0.00 0.00 0.00 69 1011.4
20260505010049 68 196 2.0 7.0 0.00 0.00 0.00 69 1011.4
20260505005540 68 242 3.0 7.0 0.00 0.00 0.00 69 1011.5
20260505005039 69 227 2.0 7.0 0.00 0.00 0.00 69 1011.5
20260505004550 69 196 2.0 7.0 0.00 0.00 0.00 68 1011.5
20260505004040 69 171 2.0 6.0 0.00 0.00 0.00 68 1011.5
20260505003538 69 170 2.0 9.0 0.00 0.00 0.00 68 1011.5
20260505003051 69 148 1.0 10.0 0.00 0.00 0.00 67 1011.5
20260505002539 69 171 2.0 10.0 0.00 0.00 0.00 67 1011.6
20260505002039 69 188 2.0 7.0 0.00 0.00 0.00 67 1011.6
20260505001550 69 230 1.0 7.0 0.00 0.00 0.00 68 1011.5
20260505001038 69 152 2.0 9.0 0.00 0.00 0.00 68 1011.5
20260505000542 69 182 3.0 9.0 0.00 0.00 0.00 68 1011.6
20260505000051 69 175 2.0 9.0 0.00 0.00 0.00 68 1011.5
20260504235541 69 167 4.0 9.0 0.00 0.00 0.00 67 1011.5
20260504235044 69 161 1.0 5.0 0.00 0.00 0.00 68 1011.6
20260504234613 69 86 1.0 7.0 0.00 0.00 0.00 68 1011.6
20260504234038 69 243 2.0 7.0 0.00 0.00 0.00 67 1011.7
20260504233538 69 102 1.0 5.0 0.00 0.00 0.00 68 1011.7
20260504233051 69 127 2.0 6.0 0.00 0.00 0.00 67 1011.8
20260504232539 69 224 2.0 6.0 0.00 0.00 0.00 68 1011.9
20260504232038 69 169 0.0 7.0 0.00 0.00 0.00 68 1011.9
20260504231554 69 164 2.0 7.0 0.00 0.00 0.00 67 1012.0
20260504231038 69 167 2.0 8.0 0.00 0.00 0.00 67 1012.0
20260504230538 69 191 3.0 8.0 0.00 0.00 0.00 66 1012.0
20260504230046 69 196 0.0 5.0 0.00 0.00 0.00 68 1012.1
20260504225538 69 169 2.0 5.0 0.00 0.00 0.00 66 1012.2
20260504225040 69 43 2.0 9.0 0.00 0.00 0.00 67 1012.3
20260504224600 69 189 1.0 9.0 0.00 0.00 0.00 69 1012.2
20260504224038 69 188 2.0 9.0 0.00 0.00 0.00 66 1012.2
20260504223538 68 183 2.0 8.0 0.00 0.00 0.00 67 1012.1
20260504223049 68 187 2.0 8.0 0.00 0.00 0.00 67 1012.2
20260504222539 68 161 2.0 10.0 0.00 0.00 0.00 67 1012.3
20260504222037 68 223 3.0 10.0 0.00 0.00 0.00 67 1012.3
20260504221600 69 159 2.0 8.0 0.00 0.00 0.00 65 1012.3
20260504221039 69 220 2.0 6.0 0.00 0.00 0.00 66 1012.4
20260504220537 69 200 2.0 6.0 0.00 0.00 0.00 66 1012.4
20260504220055 68 89 1.0 5.0 0.00 0.00 0.00 69 1012.4
20260504215538 68 167 1.0 6.0 0.00 0.00 0.00 67 1012.5
20260504215039 67 211 2.0 6.0 0.00 0.00 0.00 68 1012.7
20260504214556 67 158 0.0 7.0 0.00 0.00 0.00 69 1012.8
20260504214040 67 178 2.0 7.0 0.00 0.00 0.00 70 1013.0
20260504213539 67 203 2.0 6.0 0.00 0.00 0.00 70 1012.9
20260504213102 66 173 2.0 6.0 0.00 0.00 0.00 69 1012.9
20260504212539 66 135 1.0 7.0 0.00 0.00 0.00 70 1012.9
20260504212041 66 173 2.0 7.0 0.00 0.00 0.00 70 1012.9
20260504211553 66 194 3.0 7.0 0.00 0.00 0.00 70 1013.0